Dane County Regional Truax Field Madison US
ICAO: KMSN
IATA: MSN
Category: Large
Scheduled Services: Yes

Elevation: 887 ft
TransAlt. 18000 ft.

Airport Communications:
MADISON APP:120.1
ATIS:124.65
MADISON CLNC DEL:121.62
CTAF:119.3
MADISON DEP:126.85
MADISON GND:121.9
ARNG OPS:40.8
ANG OPS:138.25
GREEN BAY RDO:122.6
MADISON TWR:119.3
UNICOM:122.95

KMSN Zoom In..

If you have problems with the map follow the link
https://www.worldairports.se/pages/airport.php?
ICAO=KMSN

Runways:

(A) RW 03 length 7200 ft width 150 ft
---- / hdg 29

(B) RW 14 length 5846 ft width 150 ft
---- / hdg 136

(C) RW 18 length 9006 ft width 150 ft
ILS 110.10 / hdg 182

(D) RW 21 length 7200 ft width 150 ft
ILS 111.55 / hdg 209

(E) RW 32 length 5846 ft width 150 ft
---- / hdg 316

(F) RW 36 length 9006 ft width 150 ft
ILS 109.90 / hdg 2

Location; KMSN
Day. 12 / Time. 23.53 Zulu
* Altimeter: 29.97
* Temperature: 03° c. 37.4°f.
* Wind from: 210° Speed 05 kn.
Dewpoint: -03° c.
Visibility: 10 Statute Miles.
Clouds: Overcast 3500 ft.

KMSN 122353Z 21005KT 10SM OVC035 03/M03 A2997 RMK AO2 SLP159 60000 T00331033 10033 20011 53001


Wind From 210°
Speed 05 kn.

 
 
jpsmedia worldairports.se 2019   terms of use